DAL2627 KJAX-KATL

Flight info

Callsign DAL2627
Flight time 0h 48m
Altitude 28000
Route BRSTL1 BAXLY LAIRI LARZZ JJEDI4
Aircraft B739/M-SDE2E3FGHIRWXY/LB1

Departure

Time 2026-05-05 17:09
Airport Jacksonville International Airport (KJAX)

Arrival

Time 2026-05-05 17:57
Airport Hartsfield Jackson Atlanta International Airport (KATL)
Time Latitude Longitude Altitude Speed Heading
2026-05-05 16:19 30.49327 -81.68624 34 ft 0 kts 104°
2026-05-05 16:59 30.49332 -81.68643 33 ft 4 kts 101°
2026-05-05 17:00 30.49335 -81.68674 34 ft 4 kts 84°
2026-05-05 17:00 30.49328 -81.68698 34 ft 4 kts 23°
2026-05-05 17:00 30.49319 -81.68700 31 ft 1 kts 352°
2026-05-05 17:00 30.49317 -81.68699 31 ft 0 kts 352°
2026-05-05 17:03 30.49318 -81.68700 31 ft 1 kts 352°
2026-05-05 17:04 30.49333 -81.68702 34 ft 4 kts 352°
2026-05-05 17:04 30.49373 -81.68721 34 ft 9 kts 313°
2026-05-05 17:04 30.49385 -81.68804 34 ft 13 kts 268°
2026-05-05 17:04 30.49378 -81.68915 34 ft 14 kts 265°
2026-05-05 17:05 30.49424 -81.69002 34 ft 13 kts 324°
2026-05-05 17:05 30.49501 -81.69056 34 ft 13 kts 329°
2026-05-05 17:05 30.49578 -81.69106 34 ft 13 kts 331°
2026-05-05 17:05 30.49658 -81.69160 34 ft 13 kts 324°
2026-05-05 17:06 30.49674 -81.69255 35 ft 13 kts 254°
2026-05-05 17:06 30.49645 -81.69350 35 ft 12 kts 251°
2026-05-05 17:06 30.49613 -81.69454 35 ft 16 kts 251°
2026-05-05 17:06 30.49572 -81.69586 34 ft 18 kts 250°
2026-05-05 17:07 30.49540 -81.69689 34 ft 13 kts 250°
2026-05-05 17:07 30.49508 -81.69784 33 ft 13 kts 250°
2026-05-05 17:07 30.49487 -81.69882 34 ft 12 kts 268°
2026-05-05 17:07 30.49533 -81.69953 34 ft 11 kts 340°
2026-05-05 17:08 30.49608 -81.69969 33 ft 12 kts 20°
2026-05-05 17:08 30.49682 -81.69790 33 ft 49 kts 70°
2026-05-05 17:08 30.49865 -81.69199 37 ft 107 kts 70°
2026-05-05 17:08 30.50166 -81.68216 38 ft 151 kts 70°
2026-05-05 17:09 30.50540 -81.66984 330 ft 160 kts 70°
2026-05-05 17:09 30.50906 -81.65769 803 ft 165 kts 72°
2026-05-05 17:09 30.51280 -81.64495 1257 ft 165 kts 73°
2026-05-05 17:09 30.51876 -81.63317 1587 ft 180 kts 38°
2026-05-05 17:10 30.53138 -81.62966 1755 ft 204 kts 350°
2026-05-05 17:10 30.54479 -81.63690 1955 ft 225 kts 328°
2026-05-05 17:10 30.55831 -81.64722 2205 ft 241 kts 328°
2026-05-05 17:10 30.57300 -81.65862 2434 ft 266 kts 326°
2026-05-05 17:11 30.58854 -81.67070 3227 ft 270 kts 326°
2026-05-05 17:11 30.60417 -81.68277 4181 ft 272 kts 326°
2026-05-05 17:11 30.61991 -81.69484 5192 ft 270 kts 326°
2026-05-05 17:11 30.63572 -81.70692 6012 ft 273 kts 326°
2026-05-05 17:12 30.65166 -81.71906 6842 ft 275 kts 325°
2026-05-05 17:12 30.66778 -81.73130 7629 ft 277 kts 325°
2026-05-05 17:12 30.68403 -81.74364 8389 ft 281 kts 325°
2026-05-05 17:12 30.70048 -81.75610 9199 ft 283 kts 324°
2026-05-05 17:13 30.71706 -81.76866 10011 ft 286 kts 324°
2026-05-05 17:13 30.73392 -81.78144 10675 ft 292 kts 324°
2026-05-05 17:13 30.75090 -81.79429 11548 ft 290 kts 324°
2026-05-05 17:13 30.76821 -81.80742 11916 ft 308 kts 324°
2026-05-05 17:14 30.78653 -81.82134 12080 ft 329 kts 324°
2026-05-05 17:14 30.80629 -81.83635 12235 ft 349 kts 324°
2026-05-05 17:14 30.82708 -81.85211 12523 ft 363 kts 324°
2026-05-05 17:14 30.84835 -81.86829 13063 ft 367 kts 324°
2026-05-05 17:15 30.86974 -81.88458 13766 ft 367 kts 324°
2026-05-05 17:15 30.89115 -81.90085 14380 ft 368 kts 324°
2026-05-05 17:15 30.91267 -81.91718 14944 ft 370 kts 324°
2026-05-05 17:15 30.93429 -81.93358 15496 ft 372 kts 324°
2026-05-05 17:16 30.95603 -81.95007 16053 ft 374 kts 324°
2026-05-05 17:16 30.97798 -81.96657 16618 ft 376 kts 326°
2026-05-05 17:16 31.00137 -81.98051 17158 ft 381 kts 334°
2026-05-05 17:16 31.02592 -81.99222 17839 ft 378 kts 335°
2026-05-05 17:17 31.05019 -82.00343 18623 ft 374 kts 335°
2026-05-05 17:17 31.07440 -82.01462 19143 ft 375 kts 335°
2026-05-05 17:17 31.09870 -82.02594 19613 ft 377 kts 334°
2026-05-05 17:17 31.12308 -82.03740 20107 ft 378 kts 334°
2026-05-05 17:18 31.14750 -82.04896 20615 ft 379 kts 334°
2026-05-05 17:18 31.17199 -82.06060 21122 ft 380 kts 334°
2026-05-05 17:18 31.19650 -82.07228 21617 ft 381 kts 333°
2026-05-05 17:18 31.22109 -82.08403 22099 ft 383 kts 333°
2026-05-05 17:19 31.24575 -82.09582 22564 ft 384 kts 333°
2026-05-05 17:19 31.27057 -82.10770 23019 ft 386 kts 333°
2026-05-05 17:19 31.29547 -82.11963 23450 ft 388 kts 333°
2026-05-05 17:19 31.32029 -82.13152 23798 ft 391 kts 333°
2026-05-05 17:20 31.34552 -82.14362 24176 ft 392 kts 333°
2026-05-05 17:20 31.37075 -82.15571 24577 ft 392 kts 333°
2026-05-05 17:20 31.39598 -82.16781 24960 ft 393 kts 333°
2026-05-05 17:20 31.42133 -82.17998 25331 ft 394 kts 333°
2026-05-05 17:21 31.44675 -82.19219 25691 ft 396 kts 333°
2026-05-05 17:21 31.47225 -82.20445 26042 ft 396 kts 333°
2026-05-05 17:21 31.49794 -82.21681 26074 ft 400 kts 333°
2026-05-05 17:22 31.54926 -82.24150 26094 ft 397 kts 333°
2026-05-05 17:22 31.57480 -82.25380 26121 ft 397 kts 333°
2026-05-05 17:22 31.60043 -82.26617 26108 ft 398 kts 333°
2026-05-05 17:22 31.62614 -82.27858 26104 ft 399 kts 333°
2026-05-05 17:23 31.65189 -82.29101 26096 ft 400 kts 333°
2026-05-05 17:23 31.67768 -82.30347 26094 ft 401 kts 333°
2026-05-05 17:23 31.70348 -82.31594 26093 ft 401 kts 333°
2026-05-05 17:23 31.72922 -82.32866 26092 ft 400 kts 330°
2026-05-05 17:24 31.75341 -82.34447 26091 ft 397 kts 323°
2026-05-05 17:24 31.77523 -82.36403 26092 ft 394 kts 317°
2026-05-05 17:24 31.79597 -82.38501 26092 ft 393 kts 317°
2026-05-05 17:24 31.81676 -82.40597 26071 ft 393 kts 317°
2026-05-05 17:25 31.83724 -82.42651 26078 ft 392 kts 317°
2026-05-05 17:25 31.85127 -82.44055 26108 ft 392 kts 317°
2026-05-05 17:25 31.87881 -82.46801 26091 ft 392 kts 317°
2026-05-05 17:25 31.89958 -82.48872 26094 ft 391 kts 317°
2026-05-05 17:26 31.92035 -82.50941 26098 ft 391 kts 317°
2026-05-05 17:26 31.94111 -82.53012 26098 ft 391 kts 317°
2026-05-05 17:26 31.96188 -82.55085 26097 ft 391 kts 317°
2026-05-05 17:26 31.98255 -82.57166 26102 ft 391 kts 317°
2026-05-05 17:27 32.00315 -82.59259 26101 ft 391 kts 317°
2026-05-05 17:27 32.02370 -82.61355 26099 ft 391 kts 317°
2026-05-05 17:27 32.04424 -82.63451 26096 ft 391 kts 317°
2026-05-05 17:27 32.06482 -82.65552 26094 ft 391 kts 317°
2026-05-05 17:28 32.08542 -82.67653 26097 ft 391 kts 317°
2026-05-05 17:28 32.10601 -82.69755 26092 ft 392 kts 317°
2026-05-05 17:28 32.12661 -82.71859 26094 ft 392 kts 317°
2026-05-05 17:28 32.14724 -82.73966 26105 ft 392 kts 317°
2026-05-05 17:29 32.16787 -82.76075 26097 ft 393 kts 316°
2026-05-05 17:29 32.18851 -82.78186 26084 ft 393 kts 316°
2026-05-05 17:29 32.20917 -82.80300 26085 ft 393 kts 316°
2026-05-05 17:29 32.22955 -82.82386 26093 ft 393 kts 316°
2026-05-05 17:30 32.25020 -82.84503 26085 ft 393 kts 316°
2026-05-05 17:30 32.27086 -82.86622 26084 ft 393 kts 316°
2026-05-05 17:30 32.29148 -82.88737 26089 ft 393 kts 316°
2026-05-05 17:30 32.31214 -82.90858 26109 ft 393 kts 316°
2026-05-05 17:31 32.33277 -82.92977 26116 ft 393 kts 316°
2026-05-05 17:31 32.35339 -82.95097 26086 ft 393 kts 316°
2026-05-05 17:31 32.37394 -82.97210 26085 ft 393 kts 316°
2026-05-05 17:31 32.39457 -82.99332 26084 ft 392 kts 316°
2026-05-05 17:32 32.41517 -83.01450 26094 ft 392 kts 316°
2026-05-05 17:32 32.43575 -83.03567 26109 ft 392 kts 316°
2026-05-05 17:32 32.45635 -83.05687 26098 ft 393 kts 316°
2026-05-05 17:32 32.47698 -83.07813 26097 ft 393 kts 316°
2026-05-05 17:33 32.49758 -83.09937 26093 ft 393 kts 316°
2026-05-05 17:33 32.51821 -83.12065 26089 ft 393 kts 316°
2026-05-05 17:33 32.53882 -83.14193 26089 ft 393 kts 316°
2026-05-05 17:33 32.55945 -83.16323 26079 ft 393 kts 316°
2026-05-05 17:34 32.58007 -83.18455 26081 ft 393 kts 316°
2026-05-05 17:34 32.60087 -83.20608 25426 ft 400 kts 316°
2026-05-05 17:34 32.62164 -83.22760 24925 ft 394 kts 316°
2026-05-05 17:34 32.64221 -83.24893 24329 ft 391 kts 316°
2026-05-05 17:35 32.66262 -83.27012 23724 ft 389 kts 316°
2026-05-05 17:35 32.68291 -83.29121 23043 ft 387 kts 316°
2026-05-05 17:35 32.70307 -83.31216 22428 ft 383 kts 316°
2026-05-05 17:35 32.72302 -83.33293 21839 ft 380 kts 316°
2026-05-05 17:36 32.74251 -83.35323 21276 ft 377 kts 316°
2026-05-05 17:36 32.76216 -83.37369 20693 ft 374 kts 316°
2026-05-05 17:36 32.78166 -83.39402 20133 ft 372 kts 316°
2026-05-05 17:36 32.80103 -83.41423 19567 ft 370 kts 316°
2026-05-05 17:37 32.82034 -83.43439 19009 ft 369 kts 316°
2026-05-05 17:37 32.83328 -83.44791 18647 ft 368 kts 316°
2026-05-05 17:37 32.85877 -83.47454 17840 ft 368 kts 316°
2026-05-05 17:37 32.87793 -83.49458 17265 ft 365 kts 316°
2026-05-05 17:38 32.89696 -83.51449 16709 ft 363 kts 316°
2026-05-05 17:38 32.91580 -83.53420 16396 ft 355 kts 316°
2026-05-05 17:38 32.93411 -83.55337 16153 ft 345 kts 316°
2026-05-05 17:38 32.95187 -83.57196 15810 ft 338 kts 316°
2026-05-05 17:39 32.96957 -83.59051 15211 ft 342 kts 316°
2026-05-05 17:39 32.98670 -83.60846 14709 ft 342 kts 316°
2026-05-05 17:39 33.00456 -83.62717 14249 ft 341 kts 316°
2026-05-05 17:39 33.02214 -83.64560 13796 ft 340 kts 316°
2026-05-05 17:40 33.03985 -83.66417 13291 ft 339 kts 316°
2026-05-05 17:40 33.05750 -83.68270 12824 ft 337 kts 316°
2026-05-05 17:40 33.07492 -83.70100 12373 ft 335 kts 316°
2026-05-05 17:40 33.09213 -83.71908 12096 ft 328 kts 316°
2026-05-05 17:41 33.10900 -83.73680 11943 ft 318 kts 316°
2026-05-05 17:41 33.12530 -83.75393 11803 ft 308 kts 316°
2026-05-05 17:41 33.14113 -83.77058 11631 ft 300 kts 315°
2026-05-05 17:41 33.15673 -83.78706 11250 ft 299 kts 315°
2026-05-05 17:42 33.17230 -83.80353 10911 ft 298 kts 315°
2026-05-05 17:42 33.18781 -83.81993 10551 ft 297 kts 315°
2026-05-05 17:42 33.20285 -83.83680 10201 ft 296 kts 312°
2026-05-05 17:42 33.21248 -83.84830 9970 ft 296 kts 311°
2026-05-05 17:43 33.22674 -83.86554 9575 ft 296 kts 311°
2026-05-05 17:43 33.24117 -83.88295 9211 ft 294 kts 311°
2026-05-05 17:43 33.26031 -83.90588 8739 ft 293 kts 311°
2026-05-05 17:43 33.27469 -83.92305 8405 ft 292 kts 311°
2026-05-05 17:44 33.28438 -83.93461 8183 ft 291 kts 311°
2026-05-05 17:44 33.29860 -83.95157 8014 ft 285 kts 311°
2026-05-05 17:44 33.31256 -83.96826 7989 ft 281 kts 311°
2026-05-05 17:44 33.32589 -83.98419 7964 ft 268 kts 311°
2026-05-05 17:45 33.33880 -83.99962 7967 ft 256 kts 310°
2026-05-05 17:45 33.35124 -84.01451 7981 ft 252 kts 311°
2026-05-05 17:45 33.36561 -84.02716 7986 ft 267 kts 338°
2026-05-05 17:45 33.38495 -84.03045 7795 ft 296 kts 357°
2026-05-05 17:46 33.40584 -84.03041 7437 ft 302 kts 358°
2026-05-05 17:46 33.42687 -84.03041 7077 ft 302 kts 357°
2026-05-05 17:46 33.44793 -84.03065 6695 ft 303 kts 357°
2026-05-05 17:46 33.46898 -84.03105 6354 ft 302 kts 356°
2026-05-05 17:47 33.48977 -84.03149 6103 ft 297 kts
2026-05-05 17:47 33.51025 -84.02942 5850 ft 293 kts
2026-05-05 17:47 33.53041 -84.02728 5647 ft 287 kts
2026-05-05 17:47 33.55001 -84.02524 5534 ft 278 kts
2026-05-05 17:48 33.56888 -84.02330 5437 ft 265 kts
2026-05-05 17:48 33.58683 -84.02151 5286 ft 253 kts
2026-05-05 17:48 33.60421 -84.01979 5146 ft 248 kts
2026-05-05 17:48 33.62090 -84.01816 5018 ft 239 kts
2026-05-05 17:49 33.63728 -84.01660 4994 ft 234 kts
2026-05-05 17:49 33.65326 -84.01508 4986 ft 225 kts
2026-05-05 17:49 33.66840 -84.01525 4965 ft 214 kts 342°
2026-05-05 17:49 33.68068 -84.02429 4986 ft 207 kts 304°
2026-05-05 17:50 33.68585 -84.03959 4992 ft 195 kts 265°
2026-05-05 17:50 33.68253 -84.05463 5001 ft 185 kts 237°
2026-05-05 17:50 33.67604 -84.06798 4993 ft 185 kts 234°
2026-05-05 17:50 33.66929 -84.08129 4978 ft 187 kts 234°
2026-05-05 17:51 33.66246 -84.09455 4990 ft 188 kts 238°
2026-05-05 17:51 33.65748 -84.10917 4982 ft 189 kts 245°
2026-05-05 17:51 33.65271 -84.12390 4970 ft 189 kts 244°
2026-05-05 17:51 33.64934 -84.13918 4959 ft 195 kts 266°
2026-05-05 17:52 33.65024 -84.15532 4966 ft 194 kts 265°
2026-05-05 17:52 33.65010 -84.17162 4789 ft 198 kts 263°
2026-05-05 17:52 33.64991 -84.18814 4530 ft 198 kts 265°
2026-05-05 17:52 33.64984 -84.20456 4299 ft 196 kts 264°
2026-05-05 17:53 33.64979 -84.22069 4037 ft 191 kts 263°
2026-05-05 17:53 33.64975 -84.23654 3786 ft 189 kts 264°
2026-05-05 17:53 33.64975 -84.25197 3550 ft 188 kts 264°
2026-05-05 17:53 33.64973 -84.26788 3310 ft 183 kts 264°
2026-05-05 17:54 33.64968 -84.28272 3090 ft 169 kts 265°
2026-05-05 17:54 33.64967 -84.29626 2848 ft 160 kts 262°
2026-05-05 17:54 33.64962 -84.30963 2654 ft 164 kts 264°
2026-05-05 17:54 33.64962 -84.32304 2437 ft 156 kts 263°
2026-05-05 17:55 33.64960 -84.33562 2235 ft 152 kts 264°
2026-05-05 17:55 33.64958 -84.34845 2044 ft 152 kts 264°
2026-05-05 17:55 33.64958 -84.36106 1850 ft 153 kts 263°
2026-05-05 17:55 33.64953 -84.37379 1656 ft 149 kts 266°
2026-05-05 17:56 33.64951 -84.38637 1441 ft 153 kts 263°
2026-05-05 17:56 33.64955 -84.39914 1234 ft 154 kts 264°
2026-05-05 17:56 33.64955 -84.41178 1062 ft 148 kts 263°
2026-05-05 17:56 33.64952 -84.42306 1035 ft 117 kts 270°
2026-05-05 17:57 33.64954 -84.42994 1034 ft 52 kts 269°
2026-05-05 17:57 33.64895 -84.43268 1035 ft 28 kts 239°
2026-05-05 17:57 33.64845 -84.43455 1034 ft 19 kts 269°
2026-05-05 17:57 33.64846 -84.43603 1035 ft 18 kts 269°
2026-05-05 17:58 33.64844 -84.43755 1034 ft 17 kts 269°
2026-05-05 17:58 33.64818 -84.43888 1034 ft 17 kts 231°
2026-05-05 17:58 33.64784 -84.44014 1034 ft 16 kts 270°
2026-05-05 17:58 33.64784 -84.44145 1034 ft 15 kts 269°
2026-05-05 17:59 33.64777 -84.44271 1034 ft 15 kts 244°
2026-05-05 17:59 33.64696 -84.44334 1034 ft 15 kts 191°
2026-05-05 17:59 33.64602 -84.44301 1034 ft 14 kts 142°
2026-05-05 17:59 33.64575 -84.44191 1034 ft 15 kts 95°
2026-05-05 18:00 33.64508 -84.44116 1034 ft 14 kts 172°
2026-05-05 18:00 33.64434 -84.44049 1034 ft 14 kts 109°
2026-05-05 18:00 33.64434 -84.43935 1034 ft 15 kts 82°
2026-05-05 18:00 33.64449 -84.43815 1034 ft 14 kts 84°
2026-05-05 18:01 33.64456 -84.43698 1034 ft 14 kts 83°
2026-05-05 18:01 33.64460 -84.43587 1035 ft 13 kts 90°
2026-05-05 18:01 33.64442 -84.43485 1035 ft 13 kts 130°
2026-05-05 18:01 33.64352 -84.43461 1034 ft 14 kts 179°
2026-05-05 18:02 33.64251 -84.43461 1034 ft 14 kts 180°
2026-05-05 18:02 33.64153 -84.43461 1034 ft 14 kts 180°
2026-05-05 18:02 33.64060 -84.43461 1034 ft 13 kts 180°
2026-05-05 18:02 33.63971 -84.43460 1034 ft 13 kts 180°
2026-05-05 18:03 33.63884 -84.43461 1034 ft 12 kts 181°
2026-05-05 18:03 33.63812 -84.43463 1034 ft 7 kts 191°
2026-05-05 18:03 33.63794 -84.43498 1034 ft 3 kts 269°
2026-05-05 18:03 33.63794 -84.43526 1034 ft 3 kts 270°